Weather reports worldwide

Advertisment
Lulea/Kallax, Sweden (2186): temperature & dewpoint: 21.04.2017 05:00:00 - 27.04.2017 05:00:00 (CEST)Lulea/Kallax, Sweden (2186): wind speed & gusts: 21.04.2017 05:00:00 - 27.04.2017 05:00:00 (CEST)Lulea/Kallax, Sweden (2186): wind direction: 21.04.2017 05:00:00 - 27.04.2017 05:00:00 (CEST)Lulea/Kallax, Sweden (2186): reduced air pressure: 21.04.2017 05:00:00 - 27.04.2017 05:00:00 (CEST)Lulea/Kallax, Sweden (2186): visibility: 21.04.2017 05:00:00 - 27.04.2017 05:00:00 (CEST)Lulea/Kallax, Sweden (2186): precipitation: 21.04.2017 05:00:00 - 27.04.2017 05:00:00 (CEST)
Date & Time tt [°C] td [°C] ff [km/h] ff [kn] fx [km/h] fx [kn] dd ppp [hPa] vv [km] rr [mm]
27.04.2017 05:00:00 0,2 -3,7 24 13 40 21 NNW 1000,1 10 0,0
27.04.2017 04:00:00 0,5 -3,2 21 11 40 21 NNW 999,5 10 0,0
27.04.2017 03:00:00 1,0 -3,3 21 11 32 18 NNW 999,0 10 0,0
27.04.2017 02:00:00 1,3 -3,0 22 12 40 21 NNW 998,6 10 0,0
27.04.2017 01:00:00 1,9 -3,0 21 11 36 19 NNW 998,3 10 0,0
27.04.2017 00:00:00 2,0 -2,9 24 13 43 23 NNW 997,9 10 0,0
26.04.2017 23:00:00 2,3 -3,0 24 13 40 21 NNW 997,6 10 0,0
26.04.2017 22:00:00 2,0 -2,5 22 12 43 23 NNW 997,5 10 0,0
26.04.2017 21:00:00 1,4 -1,3 31 17 47 25 NNW 997,4 10 0,0
26.04.2017 20:00:00 0,9 -0,6 28 15 47 25 NNW 997,4 8 0,0
26.04.2017 19:00:00 0,8 -0,4 28 15 43 23 NNW 997,2 8 0,0
26.04.2017 18:00:00 0,9 -0,1 28 15 43 23 NNW 997,2 7 0,1
26.04.2017 17:00:00 0,6 -0,3 21 11 40 21 N 997,4 2,4 0,2
26.04.2017 16:00:00 0,6 -0,5 18 10 43 23 N 997,5 2,0 0,2
26.04.2017 15:00:00 2,9 -3,0 24 13 54 29 NE 997,3 8 0,0
26.04.2017 14:00:00 4,3 -5,2 21 11 47 25 NNE 996,9 10 0,0
26.04.2017 13:00:00 4,7 -4,8 16 9 40 21 NNE 997,5 10 0,0
26.04.2017 12:00:00 4,5 -5,0 18 10 40 21 NNE 998,0 10 0,0
26.04.2017 11:00:00 4,1 -5,1 21 11 47 25 N 998,3 10 0,0
26.04.2017 10:00:00 3,2 -4,0 18 10 40 21 N 999,4 10 0,0
26.04.2017 09:00:00 2,4 -3,5 16 9 32 18 N 1000,1 10 0,0
26.04.2017 08:00:00 1,7 -4,0 15 8 32 18 NNE 1001,3 10 0,0
26.04.2017 07:00:00 1,3 -3,8 16 9 32 18 N 1001,7 10 0,0
26.04.2017 06:00:00 0,5 -3,6 11 6 22 12 N 1002,5 10 0,0
26.04.2017 05:00:00 -0,1 -3,8 13 7 22 12 N 1003,2 10 0,0
26.04.2017 04:00:00 -0,1 -3,8 11 6 22 12 N 1003,9 10 0,0
26.04.2017 03:00:00 0,8 -3,7 11 6 18 10 NNE 1004,5 10 0,0
26.04.2017 02:00:00 1,2 -2,9 15 8 22 12 NE 1005,0 10 0,0
26.04.2017 01:00:00 1,4 -2,2 13 7 22 12 NNE 1005,5 10 0,0
26.04.2017 00:00:00 1,7 -1,6 11 6 22 12 NNE 1005,9 10 0,0
25.04.2017 23:00:00 1,9 -1,2 13 7 22 12 NNE 1006,4 10 0,0
25.04.2017 22:00:00 2,5 -0,8 9 5 22 12 NNE 1006,8 10 0,0
25.04.2017 21:00:00 3,0 -0,6 11 6 22 12 NNE 1007,3 10 0,0
25.04.2017 20:00:00 4,3 -3,0 11 6 22 12 ENE 1007,3 10 0,0
25.04.2017 19:00:00 5,2 -3,1 9 5 18 10 ENE 1007,3 10 0,0
25.04.2017 18:00:00 5,6 -2,5 16 9 25 14 E 1007,3 10 0,0
25.04.2017 17:00:00 5,6 -3,0 9 5 18 10 E 1007,5 10 0,0
25.04.2017 16:00:00 5,3 -2,3 13 7 25 14 E 1007,8 10 0,0
25.04.2017 15:00:00 4,4 -2,5 13 7 25 14 E 1008,1 10 0,0
25.04.2017 14:00:00 4,0 -2,4 13 7 25 14 E 1008,4 10 0,0
25.04.2017 13:00:00 3,2 -2,3 15 8 25 14 E 1008,5 10 0,0
25.04.2017 12:00:00 2,2 -2,1 13 7 22 12 NE 1008,7 10 0,0
25.04.2017 11:00:00 1,5 -2,1 13 7 22 12 E 1008,8 10 0,0
25.04.2017 10:00:00 1,5 -1,2 15 8 22 12 ENE 1008,6 10 0,0
25.04.2017 09:00:00 0,8 -0,7 11 6 22 12 ENE 1008,3 10 0,0
25.04.2017 08:00:00 -0,1 -0,7 11 6 22 12 E 1008,2 10 0,0
25.04.2017 07:00:00 -0,6 -1,0 11 6 22 12 NE 1007,9 10 0,0
25.04.2017 06:00:00 -1,0 -1,4 11 6 14 8 NE 1007,8 27 0,0
25.04.2017 05:00:00 -1,2 -1,8 8 4 14 8 NNE 1007,7 10 0,0
25.04.2017 04:00:00 -1,4 -1,8 5 3 11 6 N 1007,6 10 0,0
25.04.2017 03:00:00 -1,4 -1,8 4 2 11 6 - 1007,6 10 0,0
25.04.2017 02:00:00 -2,0 -2,4 4 2 7 4 NNW 1007,8 10 0,0
25.04.2017 01:00:00 -2,4 -2,8 5 3 7 4 NNW 1007,8 10 0,0
25.04.2017 00:00:00 -1,9 -2,3 2 1 4 2 - 1007,9 10 0,0
24.04.2017 23:00:00 -2,0 -2,6 4 2 11 6 - 1007,8 0,2 0,0
24.04.2017 22:00:00 -2,7 -3,1 9 5 11 6 SSE 1007,7 0,1 0,0
24.04.2017 21:00:00 -2,5 -2,9 5 3 11 6 SSE 1007,5 0,1 0,0
24.04.2017 20:00:00 -1,8 -2,2 9 5 14 8 SSE 1007,2 0,2 0,0
24.04.2017 19:00:00 -0,1 -1,1 8 4 11 6 SE 1006,9 10 0,0
24.04.2017 18:00:00 0,8 -0,7 8 4 14 8 SE 1006,5 10 0,0
24.04.2017 17:00:00 1,8 -0,3 8 4 14 8 NE 1006,4 10 0,0
24.04.2017 16:00:00 1,7 -0,6 8 4 14 8 E 1006,3 10 0,0
24.04.2017 15:00:00 - - - - - - - - - -
24.04.2017 14:00:00 1,1 -1,0 11 6 18 10 ENE 1006,1 10 0,0
24.04.2017 13:00:00 0,7 -1,1 11 6 18 10 E 1005,9 10 0,0
24.04.2017 12:00:00 0,3 -0,4 8 4 18 10 ESE 1005,5 10 0,0
24.04.2017 11:00:00 0,2 -0,4 13 7 22 12 E 1005,2 8 0,0
24.04.2017 10:00:00 0,0 -0,4 11 6 18 10 E 1004,9 9 0,0
24.04.2017 09:00:00 -0,5 -0,9 9 5 18 10 E 1004,4 3,5 0,0
24.04.2017 08:00:00 -0,8 -1,2 9 5 18 10 E 1004,0 4,5 0,0
24.04.2017 07:00:00 -0,5 -0,8 7 4 14 8 E 1003,6 3,5 0,0
24.04.2017 06:00:00 -0,5 -0,8 8 4 14 8 E 1003,4 10 0,2
24.04.2017 05:00:00 -0,9 -1,5 2 1 7 4 - 1003,2 1,4 0,5
24.04.2017 04:00:00 -1,6 -2,0 4 2 7 4 - 1003,3 0,9 2,0
24.04.2017 03:00:00 -2,1 -2,5 5 3 11 6 NE 1003,5 0,7 0,8
24.04.2017 02:00:00 -2,7 -3,1 4 2 11 6 - 1003,6 1,2 0,0
24.04.2017 01:00:00 -3,5 -4,0 4 2 11 6 - 1003,5 10 0,0
24.04.2017 00:00:00 -3,1 -3,6 4 2 14 8 - 1003,4 10 0,0
23.04.2017 23:00:00 -2,8 -3,2 8 4 11 6 NE 1003,3 10 0,0
23.04.2017 22:00:00 -2,7 -3,1 5 3 7 4 NE 1003,0 2,1 0,0
23.04.2017 21:00:00 -2,7 -3,1 4 2 7 4 - 1002,9 0,5 0,0
23.04.2017 20:00:00 -2,5 -2,9 8 4 11 6 SSE 1002,7 0,3 0,0
23.04.2017 19:00:00 -0,9 -2,0 9 5 11 6 SSE 1002,3 10 0,0
23.04.2017 18:00:00 -0,7 -1,5 11 6 14 8 SSE 1002,0 10 0,0
23.04.2017 17:00:00 0,2 -1,2 13 7 14 8 SSE 1001,7 10 0,0
23.04.2017 16:00:00 0,5 -0,9 13 7 14 8 SSE 1001,3 10 0,0
23.04.2017 15:00:00 1,4 -0,8 8 4 14 8 ESE 1001,2 10 0,0
23.04.2017 14:00:00 1,6 -1,0 8 4 14 8 ESE 1001,1 10 0,0
23.04.2017 13:00:00 1,1 -1,0 13 7 22 12 E 1000,8 10 0,0
23.04.2017 12:00:00 1,4 -0,8 11 6 18 10 E 1000,3 10 0,0
23.04.2017 11:00:00 0,4 -2,0 11 6 18 10 E 1000,0 30 0,0
23.04.2017 10:00:00 0,0 -3,0 11 6 18 10 E 999,5 10 0,0
23.04.2017 09:00:00 1,3 -5,6 5 3 11 6 E 999,0 10 0,0
23.04.2017 08:00:00 1,4 -5,7 4 2 11 6 - 998,6 10 0,0
23.04.2017 07:00:00 -0,6 -5,2 5 3 11 6 N 998,1 10 0,0
23.04.2017 06:00:00 -2,7 -5,3 0 0 4 2 N 998,1 10 0,0
23.04.2017 05:00:00 -4,2 -6,2 4 2 4 2 NNW 997,9 10 0,0
23.04.2017 04:00:00 -4,0 -6,1 2 1 4 2 NW 997,9 10 0,0
23.04.2017 03:00:00 -3,7 -6,5 0 0 7 4 N 997,8 10 0,0
23.04.2017 02:00:00 -2,6 -6,9 5 3 11 6 WNW 997,8 10 0,0
23.04.2017 01:00:00 -0,8 -7,4 5 3 11 6 WNW 997,9 10 0,0
23.04.2017 00:00:00 -1,1 -7,0 2 1 7 4 NW 997,9 10 0,0
22.04.2017 23:00:00 -1,1 -6,4 5 3 7 4 W 997,9 10 0,0
22.04.2017 22:00:00 -0,8 -5,8 4 2 4 2 NW 997,9 10 0,0
22.04.2017 21:00:00 1,0 -6,1 4 2 14 8 NNW 997,9 10 0,0
22.04.2017 20:00:00 2,0 -5,0 15 8 25 14 NW 997,8 10 0,0
22.04.2017 19:00:00 3,7 -5,5 22 12 29 16 NW 997,6 10 0,0
22.04.2017 18:00:00 3,6 -4,1 22 12 36 19 NW 997,5 10 0,0
22.04.2017 17:00:00 3,5 -3,3 28 15 40 21 NW 997,3 10 0,0
22.04.2017 16:00:00 3,1 -2,4 32 18 36 19 NW 997,1 45 0,0
22.04.2017 15:00:00 3,3 -2,0 29 16 36 19 NW 997,0 10 0,0
22.04.2017 14:00:00 3,9 -2,7 24 13 36 19 NNW 996,8 10 0,0
22.04.2017 13:00:00 4,1 -2,3 15 8 36 19 NNW 996,3 10 0,0
22.04.2017 12:00:00 4,4 -1,8 18 10 32 18 N 995,9 10 0,0
22.04.2017 11:00:00 2,9 -1,5 22 12 40 21 NNW 995,7 10 0,0
22.04.2017 10:00:00 2,1 -0,8 16 9 32 18 NNW 994,9 10 0,0
22.04.2017 09:00:00 0,9 -0,7 21 11 36 19 NNW 994,0 10 0,0
22.04.2017 08:00:00 0,8 -0,5 15 8 29 16 NNW 993,1 10 0,0
22.04.2017 07:00:00 0,6 -0,3 18 10 32 18 NNW 992,3 10 0,0
22.04.2017 06:00:00 0,3 0,0 14 8 25 14 NNW 991,4 9 0,3
22.04.2017 05:00:00 0,0 -0,4 11 6 22 12 N 990,1 1,2 0,6
22.04.2017 04:00:00 0,2 -0,2 8 4 22 12 N 989,2 2,1 0,3
22.04.2017 03:00:00 0,9 0,0 11 6 25 14 NNE 988,3 10 0,0
22.04.2017 02:00:00 0,7 -0,2 11 6 25 14 NNE 987,2 10 0,0
22.04.2017 01:00:00 0,0 -0,8 9 5 18 10 NNE 986,1 10 0,0
22.04.2017 00:00:00 -0,7 -1,5 11 6 18 10 N 985,0 10 0,0
21.04.2017 23:00:00 -0,1 -1,4 11 6 22 12 NNW 984,5 10 0,0
21.04.2017 22:00:00 0,4 -1,8 5 3 11 6 N 983,9 10 0,0
21.04.2017 21:00:00 2,8 -1,7 8 4 14 8 SSW 983,6 10 0,0
21.04.2017 20:00:00 4,1 -1,7 11 6 14 8 S 983,4 10 0,0
21.04.2017 19:00:00 5,8 -1,6 8 4 14 8 S 983,3 10 0,0
21.04.2017 18:00:00 5,3 -1,6 13 7 18 10 SE 983,7 10 0,0
21.04.2017 17:00:00 4,2 -0,8 15 8 25 14 SE 983,9 10 0,0
21.04.2017 16:00:00 3,7 -0,3 18 10 29 16 S 984,4 10 0,0
21.04.2017 15:00:00 3,7 0,2 16 9 29 16 SSE 985,2 10 0,0
21.04.2017 14:00:00 3,6 0,8 15 8 22 12 S 985,9 10 0,1
21.04.2017 13:00:00 3,4 0,6 15 8 25 14 SW 986,6 10 0,3
21.04.2017 12:00:00 4,4 -1,6 15 8 25 14 S 986,7 10 0,0
21.04.2017 11:00:00 3,4 -1,7 18 10 25 14 S 987,4 10 0,0
21.04.2017 10:00:00 3,1 -1,6 13 7 18 10 SE 987,8 10 0,0
21.04.2017 09:00:00 2,2 -2,0 11 6 18 10 SE 988,3 10 0,0
21.04.2017 08:00:00 1,9 -2,8 9 5 14 8 S 989,0 10 0,0
21.04.2017 07:00:00 0,9 -2,9 9 5 14 8 S 989,7 10 0,0
21.04.2017 06:00:00 -0,6 -3,1 5 3 11 6 S 990,4 10 0,0
21.04.2017 05:00:00 -1,8 -3,4 4 2 11 6 SW 991,1 10 0,0

tt = temperature
td = dewpoint
ff = wind speed
fx = gusts
dd = wind direction
ppp = reduced air pressure
vv = visibility
rr = precipitation

Next stations